Regional Weather Roundup
Issued by NWS

Home | Current Version | Previous Version | Graphics & Text | Print | Product List | Glossary Off
Versions: 1 2 3 4 5 6 7 8 9 10 11 12 13 14 15 16 17 18 19 20 21 22 23 24 25 26 27 28 29 30 31 32 33 34 35 36 37 38 39 40 41 42 43 44 45 46 47 48 49 50

965
ASUS43 KMKX 191300
RWRWI

WISCONSIN REGIONAL WEATHER ROUNDUP
NATIONAL WEATHER SERVICE MILWAUKEE/SULLIVAN WI
800 AM CDT SAT AUG 19 2017

NOTE: "FAIR" INDICATES FEW OR NO CLOUDS BELOW 12,000 FEET WITH NO
SIGNIFICANT WEATHER AND/OR OBSTRUCTIONS TO VISIBILITY.

WIZ001-002-006>008-014>016-023>028-191400-
NORTHWEST WISCONSIN

CITY           SKY/WX    TMP DP  RH WIND       PRES   REMARKS
SUPERIOR ARPT    N/A     58  57  98 SW7       29.90R
ASHLAND        SUNNY     62  58  86 SW9       29.89R
HAYWARD        MOSUNNY   59  57  93 SW3       29.93S
SIREN          SUNNY     59  59  97 SW3       29.93S
CUMBERLAND     MOSUNNY   55  55 100 CALM      29.95R FOG
RICE LAKE      SUNNY     56  56  98 CALM      29.95S FOG
CHETEK         SUNNY     58  58 100 CALM      29.94R FOG
LADYSMITH      PTSUNNY   58  58  97 CALM      29.95R FOG
EAU CLAIRE     PTSUNNY   60  59  96 SW3       29.94R FOG
MENOMONIE      SUNNY     57  57 100 CALM      29.95R FOG
NEW RICHMOND   SUNNY     60  60 100 SW5       29.95R FOG
OSCEOLA        MOSUNNY   56  56 100 CALM      29.97R FOG
$$

WIZ003>005-009-010-017-018-191400-
NORTH CENTRAL WISCONSIN

CITY           SKY/WX    TMP DP  RH WIND       PRES   REMARKS
MANITOWISH WTR SUNNY     56  56 100 CALM      29.92R
ARBOR VITAE    SUNNY     59  58  96 CALM      29.92S FOG
WOODRUFF       SUNNY     59  58  96 CALM      29.92S FOG
RHINELANDER    MOSUNNY   62  61  96 W5        29.94R
EAGLE RIVER    SUNNY     58  58 100 W5        29.91S
LAND O LAKES   SUNNY     59  59 100 W3        29.93R
PHILLIPS       MOSUNNY   59  59 100 SW5       29.93R
TOMAHAWK         N/A     59  58  97 CALM      29.94S FOG
MEDFORD        FOG       58  58  99 CALM      29.94S VSB 1/4
MERRILL        NOT AVBL
$$

WIZ029-030-035-036-043>047-191400-
CENTRAL WISCONSIN

CITY           SKY/WX    TMP DP  RH WIND       PRES   REMARKS
WAUSAU         CLOUDY    61  60  97 W6        29.93R FOG
MOSINEE        MOSUNNY   61  61 100 W5        29.96R FOG
MARSHFIELD     SUNNY     61  59  93 W5        29.95R FOG
STEVENS POINT  CLOUDY    58  58 100 CALM      29.96R FOG
WAUPACA        PTSUNNY   66  64  95 W6        29.94S FOG
WAUTOMA        NOT AVBL
WISC RAPIDS    PTSUNNY   61  61 100 W5        29.97R FOG
CAMP DOUGLAS   NOT AVBL
$$

WIZ011>013-019>022-031-037>040-048>050-191400-
NORTHEAST WISCONSIN

CITY           SKY/WX    TMP DP  RH WIND       PRES   REMARKS
ANTIGO         CLOUDY    61  61 100 NW6       29.95R FOG
SHAWANO        MOSUNNY   66  63  90 W3        29.92R
OCONTO         CLOUDY    60  60  98 W8        29.90S
STURGEON BAY   SUNNY     64  62  93 W7        29.90S
GREEN BAY      CLOUDY    64  64 100 W8        29.93R
MANITOWOC      CLOUDY    63  61  94 W8        29.93R FOG
APPLETON       CLOUDY    63  63 100 W6        29.93R FOG
CLINTONVILLE   PTSUNNY   64  61  88 W5        29.92S
OSHKOSH        CLOUDY    65  62  90 W7        29.94R FOG
$$

WIZ032>034-041-042-053>061-191400-
SOUTHWEST WISCONSIN

CITY           SKY/WX    TMP DP  RH WIND       PRES   REMARKS
LA CROSSE      FOG       60  59  96 SE3       29.95R VSB 1/4
SPARTA         FOG       53  53 100 CALM      29.97R VSB<1/4
VIROQUA        SUNNY     59  59 100 CALM      29.96S
BOSCOBEL       FOG       58  58 100 CALM      29.98R VSB<1/4
PRAIRIE DU CHI FOG       57  56  97 CALM      29.97R VSB<1/4
PLATTEVILLE      N/A     58  58 100 CALM      29.98R VSB 1
$$

WIZ056-057-062-063-064-067-068-191400-
SOUTH CENTRAL WISCONSIN

CITY           SKY/WX    TMP DP  RH WIND       PRES   REMARKS
REEDSBURG      SUNNY     56  56 100 CALM      29.96R
BARABOO/DELLS  SUNNY     60  59  97 CALM      29.96R
LONE ROCK      NOT AVBL
MINERAL POINT  SUNNY     61  61 100 CALM      29.97R FOG
MADISON        SUNNY     64  61  90 CALM      29.96R
MIDDLETON      SUNNY     61  61 100 CALM      29.96S
WATERTOWN      FOG       61  61 100 CALM      29.95R VSB 3/4
MONROE         SUNNY     61  59  94 N3        29.97R
JANESVILLE     SUNNY     63  63 100 CALM      29.95R
$$

WIZ051-052-058>065-066-070>072-191400-
SOUTHEAST WISCONSIN

CITY           SKY/WX    TMP DP  RH WIND       PRES   REMARKS
MILWAUKEE      SUNNY     67  63  87 NW3       29.94R
WAUKESHA       CLOUDY    61  61 100 W6        29.96R FOG
MILWAUKEE/TIMM CLOUDY    63  59  88 NW6       29.95S FOG
RACINE         SUNNY     66  63  90 NW6       29.96R
KENOSHA        SUNNY     66  62  87 NW5       29.95S
FOND DU LAC    CLOUDY    64  61  90 NW5       29.95R FOG
SHEBOYGAN      SUNNY     65  65 100 W7        29.93S FOG
WEST BEND      PTSUNNY   63  61  94 NW5       29.95S
JUNEAU         CLOUDY    62  61  98 CALM      29.96S FOG
$$

LSZ147-162-191400-
LAKE SUPERIOR

STATION/POSITION TIME  TEMP    WIND        PRES    WAVE
                       AIR SEA DIR/SP/G            HT/PER
                 (UTC) (F)     (DEG/KT/KT) (MB)    (FT/S)
W MID LAKE BUOY  1150   61 60  250/ 14/ 16 1009.8R   2/ 4
DEVILS ISLAND    1200   61     230/ 14/ 16 1010.9R
SAXON HARBOR     1230   64     200/  8/ 11 1011.5R
$$

LMZ867-665-643>646-191400-
LAKE MICHIGAN

STATION/POSITION TIME  TEMP    WIND        PRES    WAVE
                       AIR SEA DIR/SP/G            HT/PER
                 (UTC) (F)     (DEG/KT/KT) (MB)    (FT/S)
S GREEN BAY BUOY 1230   62 70  270/ 10/ 14 1012.4R
N MID LAKE BUOY  1150   65 66  250/  8/ 10 1011.9R   1
NORTHPORT PIER   1240   67     270/  2/  7 1011.9R
KEWAUNEE LAKESHO 1230   63     280/  7/ 11 1011.9R
SHEBOYGAN LAKESH 1200   65     290/  8/  9 1012.8R
PORT WASHINGTON  1240   67     290/  5/ 11 1014.6R
ATWATER BUOY     1109   66 70  300/  8/ 10 1013.2R
MILWAUKEE LAKESH 1250   66     290/  6/  7   N/A
S MID LAKE BUOY  1150   69 71  350/ 10/ 10 1013.1R   2/ 4
KENOSHA   LAKESH 1200   64     310/  7/ 11 1013.9
$$

TC  - TEMPERATURE IN CELSIUS
VSB - VISIBILITY IN STATUTE MILES
WCI - WIND CHILL INDEX
HX  - HEAT INDEX





USA.gov is the U.S. government's official web portal to all federal, state and local government web resources and services.